Location: Krasnoyarskiy Pitomnik
(51.1333°N, 71.6167°E)
Time: 00:08:46
(UTC+00:00)

A-11 Canister half - Pass Details

Date: 17 April 2024
Orbit: 1514 x 1685 km, 47.2° (Epoch: 19 May)

Event Time Altitude Azimuth Distance (km) Brightness Sun altitude
Rises 14:42:11 0° 285° (WNW) 4,813 14.0 -5.1°
Reaches altitude 10° 14:46:53 10° 266° (W) 3,857 12.2 -5.7°
Maximum altitude 14:52:08 16° 233° (SW) 3,427 11.2 -6.5°
Drops below altitude 10° 14:57:28 10° 200° (SSW) 3,911 11.1 -7.2°
Sets 15:02:20 0° 181° (S) 4,913 11.4 -7.9°
